"Pseudo-MPEC" for 2000-072E = NORAD 26612 = EPS 507

Created 2017 Oct 20 13:26:06 UT using Find_Orb

Astrometry:
2000-072E    tC2016 08 05.95063 17 15 44.97 +10 03 52.2         x14.8 R D0550Y00
2000-072E    tC2016 08 05.95151 17 16 15.82 +10 03 25.4         x14.4 R D0550Y00
2000-072E    tC2016 08 05.95239 17 16 46.24 +10 02 59.0         x15.1 R D0550Y00
2000-072E    tC2017 10 16.18397 02 26 03.52 +06 25 32.6          13.7 R      Y00
2000-072E    tC2017 10 16.18534 02 26 48.18 +06 27 03.8          13.8 R      Y00
2000-072E    tC2017 10 16.18633 02 27 21.29 +06 28 10.3          13.7 R      Y00
2000-072E    tC2017 10 18.18697 02 42 20.51 +06 58 36.5          14.0 R      Y00
2000-072E    tC2017 10 18.18800 02 42 53.49 +06 59 48.1          14.0 R      Y00
2000-072E    tC2017 10 18.18935 02 43 36.78 +07 01 21.6          13.9 R      Y00
2000-072E    tC2017 10 20.13852 02 31 01.06 +06 33 31.3          13.5 R      Y00
2000-072E    tC2017 10 20.13963 02 31 37.68 +06 34 44.6          13.4 R      Y00
2000-072E    tC2017 10 20.14074 02 32 14.11 +06 35 57.8          13.5 R      Y00

Station data:
(Y00) SONEAR Observatory, Oliveira  (S20.715080 W44.784960)  Brazil.
   Observers C. Jacques, E. Pimentel, J. Barros. Measurer C. Jacques. 0.28-m
   f/2.2 astrograph + CCD.

Orbital elements:  2000-072E = NORAD 26612 = EPS 507
   Perigee 2017 Oct 18.438631 +/- 0.000101 TT = 10:31:37 (JD 2458044.938631)
Epoch 2017 Oct 18.2 TT = JDT 2458044.7                        Gray
M 186.69674 +/- 0.07                (J2000 equator)
n 726.23834361 +/- 0.00204          Peri.  208.60607 +/- 0.025
a 26457.6168 +/- 0.0497             Node    13.76871 +/- 0.009
e   0.7359829 +/- 9.52e-5           Incl.    7.00752 +/- 0.0021
P 713.80m/0.496d           H 31.2   G  0.15   U  8.6  
q 6985.26108 +/- 2.51    Q 45929.9726 +/- 2.57
9 of 12 observations 2017 Oct. 16-20; mean residual 2".684
Residuals in arcseconds: 
160805 Y00(2532+  110-)   171016 Y00 4.26- .046-    171018 Y00 1.26+ .161+    
160805 Y00(2550+  111-)   171016 Y00 8.72+ 1.06+    171020 Y00 2.53- .479-    
160805 Y00(2563+  113-)   171018 Y00 1.54- .435-    171020 Y00 .784+ .103+    
171016 Y00 4.01- .923-    171018 Y00 .778- .085+    171020 Y00 2.28+ .467+    

Ephemerides (geocentric):
Date (UTC) HH   RA              Dec         delta   r     elong  mag " sig PA
---- -- -- --  ------------   ------------  ------ ------ -----  --- ---- ---
2017 10 20 00  00 18 37.419   -01 02 27.56    28635 0.9960 157.1 13.7  109  79
2017 10 20 01  01 12 17.504   +00 36 14.36    36471 0.9961 168.3 13.9 44.3  76
2017 10 20 02  01 49 23.612   +01 43 36.71    41670 0.9961 171.1 14.0 17.5  72
2017 10 20 03  02 19 44.252   +02 36 43.35    44739 0.9961 167.3 14.3  3.9  54
2017 10 20 04  02 47 20.223   +03 22 36.76    45914 0.9961 161.7 14.6  3.9  91
2017 10 20 05  03 14 39.184   +04 05 05.05    45276 0.9960 155.6 14.8  6.7  76
2017 10 20 06  03 44 00.102   +04 46 45.68    42781 0.9960 148.7 14.8  5.0  56
2017 10 20 07  04 18 45.305   +05 29 55.35    38247 0.9959 140.3 14.8  7.5 119
2017 10 20 08  05 06 13.684   +06 16 24.96    31265 0.9959 128.8 14.7 38.7  96
2017 10 20 09  06 32 00.760   +06 58 49.62    20967 0.9958 107.9 14.5  171  93
2017 10 20 10  13 02 54.771   -00 19 31.12     7323 0.9957  13.7 23?? 2092  97
2017 10 20 11  22 45 03.746   -03 42 03.38    18486 0.9958 134.2 13.4  322  82
2017 10 20 12  00 26 11.245   -00 47 31.01    29588 0.9959 158.4 13.7 96.7  79
2017 10 20 13  01 17 15.902   +00 46 29.87    37117 0.9959 168.7 13.9 39.6  76
2017 10 20 14  01 53 22.909   +01 51 49.51    42079 0.9959 170.9 14.1 15.0  71
2017 10 20 15  02 23 18.054   +02 43 51.36    44946 0.9959 166.9 14.4  2.5  41
2017 10 20 16  02 50 46.111   +03 29 07.83    45932 0.9959 161.3 14.6  4.9  87
2017 10 20 17  03 18 10.827   +04 11 15.75    45107 0.9959 155.2 14.8  7.2  76
2017 10 20 18  03 47 53.844   +04 52 48.01    42414 0.9959 148.2 14.8  5.1  54
2017 10 20 19  04 23 30.335   +05 35 58.50    37652 0.9958 139.6 14.8  8.5 117
2017 10 20 20  05 13 06.800   +06 22 23.10    30381 0.9957 127.6 14.7 43.3  96
2017 10 20 21  06 47 03.918   +07 00 27.91    19660 0.9956 104.7 14.4  201  93
2017 10 20 22  15 00 23.142   -03 44 51.51     6978 0.9955  20.6 20?? 2313  96
2017 10 20 23  23 01 44.053   -03 14 27.28    19841 0.9957 137.8 13.5  271  82
2017 10 21 00  00 33 19.463   -00 33 17.00    30504 0.9957 159.5 13.8 86.3  78
2017 10 21 01  01 22 05.641   +00 56 28.72    37735 0.9958 169.1 13.9 35.4  75
2017 10 21 02  01 57 18.575   +01 59 53.99    42466 0.9958 170.6 14.1 12.7  70
2017 10 21 03  02 26 50.517   +02 50 54.66    45132 0.9958 166.6 14.4  1.6   9
2017 10 21 04  02 54 12.166   +03 35 36.09    45932 0.9958 161.0 14.6  5.8  85
2017 10 21 05  03 21 44.117   +04 17 24.76    44919 0.9958 154.7 14.8  7.7  75
2017 10 21 06  03 51 51.414   +04 58 49.31    42025 0.9957 147.7 14.8  5.1  52
2017 10 21 07  04 28 23.829   +05 42 00.47    37031 0.9957 138.9 14.8  9.6 114
2017 10 21 08  05 20 23.311   +06 28 14.06    29461 0.9956 126.3 14.6 48.6  95
2017 10 21 09  07 04 13.391   +06 59 58.08    18299 0.9955 100.9 14.4  240  93
2017 10 21 10  16 56 55.432   -06 10 05.64     7425 0.9954  47.9 15?? 2039  93
2017 10 21 11  23 16 22.246   -02 49 10.60    21141 0.9955 140.8 13.5  230  81
2017 10 21 12  00 40 04.872   -00 19 43.74    31384 0.9956 160.6 13.8 77.1  78
2017 10 21 13  01 26 47.077   +01 06 09.42    38327 0.9957 169.4 13.9 31.4  75
2017 10 21 14  02 01 10.474   +02 07 47.98    42831 0.9957 170.4 14.1 10.6  68
2017 10 21 15  02 30 21.363   +02 57 50.93    45299 0.9957 166.2 14.4  1.6 138